North Las Vegas, NV

11:47 AM PST on November 21, 2017 (GMT -0800)
North Las Vegas

Weather History for KVGT - December, 2012

Change the Weather History Date:

Sunday, December 2, 2012

  Actual Average Record
Temperature  
Mean Temperature 58 °F 50 °F  
Max Temperature 71 °F 59 °F 72 °F (2012)
Min Temperature 46 °F 40 °F 32 °F (2007)
Degree Days  
Heating Degree Days 6 15  
Month to date heating degree days 30  
Since 1 July heating degree days 343  
Cooling Degree Days 0 0  
Month to date cooling degree days 0  
Year to date cooling degree days 3294  
Growing Degree Days 8 (Base 50)    
Moisture  
Dew Point 43 °F    
Average Humidity 57    
Maximum Humidity 80    
Minimum Humidity 32    
Precipitation  
Precipitation 0.00 in 0.02 in 0.29 in (2014)
Month to date precipitation 0.03  
Year to date precipitation 4.83  
Sea Level Pressure  
Sea Level Pressure 29.96 in    
Wind  
Wind Speed 8 mph (SW)    
Max Wind Speed 24 mph    
Max Gust Speed 33 mph    
Visibility 10 miles    
Events      
T = Trace of Precipitation, MM = Missing Value Source: NWS Daily Summary

Daily Weather History Graph

Daily Weather History Graph

Search for Another Location

Airport or City:

Trip Planner

Search our weather history database for the weather conditions in past years. The results will help you decide how hot, cold, wet, or windy it might be!

Date:

Astronomy

Dec. 02, 2012 Rise Set
Actual Time 6:34 AM PST 4:25 PM PST
Civil Twilight 6:06 AM PST 4:54 PM PST
Nautical Twilight 5:34 AM PST 5:26 PM PST
Astronomical Twilight 5:03 AM PST 5:57 PM PST
Moon 8:14 PM PST (12/2) 9:29 AM PST (12/2)
Length of Visible Light 10h 47m
Length of Day
9h 51m
Waning Gibbous, 85% of the Moon is Illuminated
Dec 2
Waning Gibbous
Dec 6
Last Quarter
Dec 13
New
Dec 19
First Quarter
Dec 28
Full

Hourly Weather History & Observations

Time (PST) Temp. Dew Point Humidity Pressure Visibility Wind Dir Wind Speed Gust Speed Precip Events Conditions
12:53 AM 53.1 °F 43.0 °F 69% 30.05 in 10.0 mi Calm Calm - N/A   Mostly Cloudy
1:53 AM 50.0 °F 42.1 °F 74% 30.05 in 10.0 mi North 4.6 mph - N/A   Clear
2:53 AM 48.9 °F 42.1 °F 77% 30.04 in 10.0 mi NNW 4.6 mph - N/A   Clear
3:53 AM 48.9 °F 42.1 °F 77% 30.03 in 10.0 mi Calm Calm - N/A   Clear
4:53 AM 48.0 °F 42.1 °F 80% 30.04 in 10.0 mi WNW 3.5 mph - N/A   Clear
5:53 AM 46.9 °F 41.0 °F 80% 30.04 in 10.0 mi NNW 5.8 mph - N/A   Clear
6:53 AM 48.0 °F 42.1 °F 80% 30.03 in 10.0 mi North 3.5 mph - N/A   Clear
7:53 AM 52.0 °F 44.1 °F 74% 30.02 in 10.0 mi NW 3.5 mph - N/A   Clear
8:53 AM 57.0 °F 45.0 °F 64% 30.01 in 10.0 mi ESE 3.5 mph - N/A   Clear
9:53 AM 60.1 °F 46.0 °F 60% 29.98 in 10.0 mi ESE 6.9 mph - N/A   Scattered Clouds
10:53 AM 66.9 °F 46.0 °F 47% 29.95 in 10.0 mi SSW 11.5 mph - N/A   Clear
11:53 AM 69.1 °F 45.0 °F 42% 29.89 in 10.0 mi SW 23.0 mph 33.4 mph N/A   Clear
12:53 PM 69.1 °F 44.1 °F 40% 29.87 in 10.0 mi South 24.2 mph 29.9 mph N/A   Clear
1:53 PM 70.0 °F 43.0 °F 38% 29.87 in 10.0 mi South 23.0 mph 29.9 mph N/A   Clear
2:53 PM 71.1 °F 39.9 °F 32% 29.87 in 10.0 mi SSW 21.9 mph 33.4 mph N/A   Scattered Clouds
3:53 PM 69.1 °F 42.1 °F 38% 29.86 in 10.0 mi South 20.7 mph 29.9 mph N/A   Clear
4:53 PM 69.1 °F 39.9 °F 35% 29.89 in 10.0 mi SW 17.3 mph 25.3 mph N/A   Scattered Clouds
5:53 PM 66.9 °F 42.1 °F 40% 29.92 in 10.0 mi SW 18.4 mph - N/A   Clear
6:53 PM 64.9 °F 43.0 °F 45% 29.91 in 10.0 mi SSW 19.6 mph - N/A   Clear
7:53 PM 64.0 °F 44.1 °F 48% 29.94 in 10.0 mi SSW 11.5 mph - N/A   Clear
8:53 PM 63.0 °F 44.1 °F 50% 29.92 in 10.0 mi South 16.1 mph - N/A   Clear
9:53 PM 61.0 °F 44.1 °F 54% 29.93 in 10.0 mi SSW 13.8 mph - N/A   Clear
10:53 PM 61.0 °F 44.1 °F 54% 29.96 in 10.0 mi WSW 10.4 mph - N/A   Clear
11:53 PM 55.0 °F 43.0 °F 64% 29.96 in 10.0 mi NNW 6.9 mph - N/A   Clear